Hourly Data Report for December 14, 2017

ST. JOHN'S INTL A
NEWFOUNDLAND

47°37'07.000" N
52°45'09.000" W
140.50 m
8403505
71801
YYT

Download Data

Hourly Data (December 2017)
Hourly Data Report for December 14, 2017
TIME
LST
Temp Definition
°C
Dew Point Definition
°C
Rel Hum Definition
%
Precip. Amount Definition
mm

Wind Dir Definition
10's deg

Wind Spd Definition
km/h
Visibility Definition
km
Stn Press Definition
kPa
Hmdx Definition


Wind Chill Definition


Weather Definition


00:30 9.4 9.3 100   19 37 4.0 96.83     Drizzle, Fog
01:30 10.5 10.4 99   20 36 6.4 96.80     Drizzle, Fog
02:30 11.7 10.8 94   21 47 24.1 96.87     Mostly Cloudy
03:30 10.3 8.0 86   23 39 24.1 96.94     LegendNANA
04:30 7.9 6.4 90   24 49 24.1 97.05     LegendNANA
05:30 5.2 3.6 89   25 39 24.1 97.27     Mostly Cloudy
06:30 3.4 1.6 88   25 43 24.1 97.52     LegendNANA
07:30 2.8 -0.1 81   24 52 24.1 97.72     LegendNANA
08:30 2.7 -2.8 67   24 43 24.1 97.92     Mainly Clear
09:30 3.6 -1.6 69   24 43 24.1 98.03     LegendNANA
10:30 4.2 0.0 74   24 42 24.1 98.15     LegendNANA
11:30 4.2 -0.4 72   23 54 24.1 98.23     Rain Showers
12:30 4.4 -1.3 66   24 57 24.1 98.30     LegendNANA
13:30 4.2 -0.9 69   24 56 24.1 98.39     LegendNANA
14:30 4.3 -1.0 68   25 42 24.1 98.49     Mostly Cloudy
15:30 3.9 -1.2 69   24 37 24.1 98.57     LegendNANA
16:30 3.3 -1.1 73   24 35 24.1 98.64     LegendNANA
17:30 3.2 -0.8 75   23 33 24.1 98.68     Mainly Clear
18:30 3.0 0.0 81   21 37 24.1 98.68     LegendNANA
19:30 2.7 0.3 84   20 33 24.1 98.64     LegendNANA
20:30 3.9 1.8 86   19 34 24.1 98.54     Cloudy
21:30 4.4 2.5 87   18 35 24.1 98.34     Rain
22:30 4.6 4.0 96   16 36 19.3 98.08     Rain
23:30 6.1 5.7 97   17 55 19.3 97.62     Moderate Rain

Notes on Data Quality.

Legend

  • E = Estimated
  • M = Missing
  • NA = Not Available*
  • [empty] = Indicates an unobserved value
Date modified: